Location: 3 Angels Observatory
(30.5437°N, 88.5068°W)
Time: 10:59:06
(UTC-06:00)

Amateur Radio Satellites - All Passes

Search period start: 19 January 2017 10:29
Search period end: 20 January 2017 10:29
Location: 3 Angels Observatory, 30.5437°N, 88.5068°W

Satellite Date Start Highest point End Downlink Frequencies (MHz)
Time Altitude Azimuth
PCSat 19 Jan 10:40:56 10:46:20 73° 248° (WSW) 10:51:43 145.827
BUGSAT 1 19 Jan 10:41:53 10:43:52 13° 69° (ENE) 10:45:53 437.445
QB50P1 19 Jan 10:55:43 10:59:55 85° 77° (ENE) 11:04:07 145.935-145.965
POLYITAN 1 19 Jan 10:59:28 11:03:40 86° 258° (WSW) 11:07:52 437.675
QB50P2 19 Jan 11:00:40 11:04:51 76° 258° (WSW) 11:09:03 145.880/145.840
50 SAT 19 Jan 11:14:11 11:15:50 13° 95° (E) 11:17:28 437.505
BY70-1 19 Jan 11:15:14 11:18:10 30° 287° (WNW) 11:20:54 436.1900
SPROUT 19 Jan 11:20:11 11:23:07 18° 95° (E) 11:26:02 437.525
POPSAT HIP 1 19 Jan 11:22:46 11:26:45 43° 261° (W) 11:30:45 437.405
CUBEBUG 1 19 Jan 11:30:26 11:34:44 62° 101° (ESE) 11:38:58 437.445
DUCHIFAT 1 19 Jan 11:35:23 11:39:12 35° 261° (W) 11:43:01 145.980
NANOSAT C BR1 19 Jan 11:40:32 11:44:06 27° 262° (W) 11:47:42 145.865
AISAT 19 Jan 11:43:29 11:47:46 54° 101° (E) 11:52:02 437.250
RS-15 19 Jan 11:46:27 11:52:03 15° 262° (W) 11:57:34 29.354- 29.394
ESTCUBE 1 19 Jan 12:00:36 12:04:35 31° 288° (WNW) 12:08:32 437.505/2401.250
Oscar 19 19 Jan 12:09:40 12:14:28 40° 72° (ENE) 12:19:18 437.125/150
Gurwin Techsat 1B 19 Jan 12:14:46 12:18:51 23° 69° (ENE) 12:22:55 435.225
BUGSAT 1 19 Jan 12:15:11 12:18:54 34° 261° (W) 12:22:37 437.445
VELOX 1 19 Jan 12:16:55 12:21:15 60° 285° (WNW) 12:25:33 145.980
50 SAT 19 Jan 12:46:05 12:49:00 24° 287° (WNW) 12:51:54 437.505
TISAT 1 19 Jan 12:51:55 12:55:30 27° 98° (E) 12:59:04 437.305
DX 1 19 Jan 12:53:13 12:57:23 48° 286° (WNW) 13:01:32 434.975-435.025
UKube-1 19 Jan 12:54:39 12:58:56 67° 284° (WNW) 13:03:11 .
SPROUT 19 Jan 12:55:24 12:58:58 27° 288° (WNW) 13:02:33 437.525
Cosmos 2491 19 Jan 12:57:39 13:06:16 57° 81° (E) 13:14:51 435.465 / 435.565
YUBILEINY 19 Jan 12:58:35 13:05:38 28° 85° (E) 13:12:42 435.215
AO-85 19 Jan 13:01:06 13:05:43 41° 113° (ESE) 13:10:02 145.980
AO-7 19 Jan 13:05:26 13:10:40 19° 58° (ENE) 13:15:54 29.400- 29.500
Cosmos 2504 19 Jan 13:06:11 13:10:06 14° 81° (E) 13:13:56 435.465 / 435.565
JUGNU 19 Jan 13:06:58 13:10:50 18° 165° (SSE) 13:14:43 437.505
CUSAT 1 19 Jan 13:07:41 13:14:02 26° 71° (ENE) 13:19:55 437.405
AIST 1 19 Jan 13:15:16 13:19:14 34° 91° (E) 13:23:11
DANDE 19 Jan 13:45:34 13:50:58 19° 72° (ENE) 13:56:32 436.750
Oscar 19 19 Jan 13:50:21 13:53:51 18° 265° (W) 13:57:23 437.125/150
Gurwin Techsat 1B 19 Jan 13:53:45 13:58:31 34° 262° (W) 14:03:19 435.225
ITUPSAT 1 19 Jan 13:58:58 14:03:08 29° 98° (E) 14:07:17 437.325
TISAT 1 19 Jan 14:28:07 14:30:52 17° 290° (WNW) 14:33:37 437.305
ITAMSAT 1 19 Jan 14:28:44 14:33:54 84° 254° (WSW) 14:39:06 435.822/435.867
BEESAT 19 Jan 14:33:52 14:38:40 77° 101° (ESE) 14:43:27 436.000
SWISSCUBE 19 Jan 14:35:23 14:40:12 90° 298° (WNW) 14:44:59 437.505
SRMSAT 19 Jan 14:35:51 14:37:53 12° 161° (SSE) 14:39:55 437.500
MOZHAYETS 4 19 Jan 14:40:09 14:43:51 23° 96° (E) 14:47:33
AO-85 19 Jan 14:43:04 14:46:13 17° 305° (NW) 14:49:14 145.980
CUSAT 1 19 Jan 14:48:35 14:56:18 55° 268° (W) 15:03:12 437.405
YUBILEINY 19 Jan 14:53:26 15:01:52 51° 280° (W) 15:10:25 435.215
Cosmos 2504 19 Jan 14:53:35 15:02:26 88° 274° (W) 15:10:51 435.465 / 435.565
AO-7 19 Jan 14:54:04 15:02:25 82° 254° (WSW) 15:10:51 29.400- 29.500
JUGNU 19 Jan 14:54:23 14:59:18 28° 175° (S) 15:04:15 437.505
AIST 1 19 Jan 14:54:35 14:56:52 14° 284° (WNW) 14:59:09
Cosmos 2491 19 Jan 14:55:48 15:02:24 25° 276° (W) 15:09:04 435.465 / 435.565
BEESAT 3 19 Jan 14:58:17 15:00:35 15° 109° (ESE) 15:02:55 437.485
M-CUBED/EXP-1 PRIME 19 Jan 15:07:37 15:08:02 10° 99° (E) 15:08:25 437.505
DANDE 19 Jan 15:26:09 15:34:11 79° 265° (W) 15:42:29 436.750
KKS-1 19 Jan 15:28:00 15:31:28 22° 97° (E) 15:34:56 437.445
HORYU 2 19 Jan 15:32:58 15:34:02 11° 66° (ENE) 15:35:05 437.375
ITUPSAT 1 19 Jan 15:37:04 15:40:45 22° 290° (WNW) 15:44:24 437.325
BEESAT 2 19 Jan 15:40:03 15:42:54 20° 110° (ESE) 15:45:47 435.950
AUBIESAT-1 19 Jan 15:42:55 15:45:48 27° 103° (ESE) 15:48:39 437.475
SO-50 19 Jan 15:56:51 15:58:25 12° 50° (NE) 16:00:00 436.795
BRITE-PL 19 Jan 15:57:12 16:02:44 59° 75° (ENE) 16:08:19 437.365/2234.400
GOMX 1 19 Jan 16:07:45 16:12:23 29° 72° (ENE) 16:16:55 467.674
Cubesat XI-IV 19 Jan 16:16:56 16:19:30 14° 66° (ENE) 16:22:05 437.490
MOZHAYETS 4 19 Jan 16:17:06 16:20:53 25° 289° (WNW) 16:24:39
SRMSAT 19 Jan 16:21:52 16:26:29 23° 169° (S) 16:31:06 437.500
STARS 19 Jan 16:23:33 16:27:44 44° 100° (E) 16:31:54 437.465
NOAA 15 19 Jan 16:28:21 16:32:05 20° 68° (ENE) 16:35:49 137.62
BEESAT 3 19 Jan 16:34:32 16:37:54 28° 302° (WNW) 16:41:20 437.485
M-CUBED/EXP-1 PRIME 19 Jan 16:39:49 16:42:34 25° 292° (WNW) 16:45:15 437.505
JUGNU 19 Jan 16:42:52 16:47:50 28° 185° (S) 16:52:49 437.505
O/OREOS (USA 219) 19 Jan 16:47:14 16:51:42 65° 253° (WSW) 16:56:11 437.305
LilacSat-2 19 Jan 16:48:40 16:51:44 24° 73° (ENE) 16:54:50 437.200
DOVE 4 19 Jan 16:52:21 16:56:48 31° 73° (ENE) 17:01:03 437.250
Cosmos 2504 19 Jan 16:52:42 16:56:38 14° 290° (WNW) 17:00:30 435.465 / 435.565
AO-7 19 Jan 16:53:52 16:56:01 11° 267° (W) 16:58:11 29.400- 29.500
CUBESAT XI-V 19 Jan 16:59:19 17:03:57 64° 284° (WNW) 17:08:32 437.345
KKS-1 19 Jan 17:04:22 17:07:53 24° 289° (WNW) 17:11:24 437.445
HORYU 2 19 Jan 17:05:47 17:10:04 51° 259° (W) 17:14:22 437.375
CUTE-I 19 Jan 17:11:02 17:16:10 52° 73° (ENE) 17:21:17 437.470
DANDE 19 Jan 17:12:55 17:15:52 12° 277° (W) 17:18:52 436.750
BEESAT 2 19 Jan 17:17:18 17:20:30 23° 304° (WNW) 17:23:44 435.950
HO-68 19 Jan 17:34:18 17:39:22 21° 63° (ENE) 17:44:27 435.675
SO-50 19 Jan 17:34:50 17:39:15 61° 245° (WSW) 17:43:38 436.795
BRITE-PL 19 Jan 17:38:23 17:41:25 15° 268° (W) 17:44:29 437.365/2234.400
GOMX 1 19 Jan 17:45:40 17:50:18 28° 263° (W) 17:54:49 467.674
NOAA 18 19 Jan 17:49:55 17:55:23 68° 74° (ENE) 18:00:51 137.9125
Cubesat XI-IV 19 Jan 17:53:48 17:59:01 58° 259° (W) 18:04:16 437.490
STARS 19 Jan 18:01:53 18:03:38 12° 293° (WNW) 18:05:24 437.465
NOAA 15 19 Jan 18:06:35 18:11:30 40° 261° (W) 18:16:28 137.62
SRMSAT 19 Jan 18:10:02 18:15:10 29° 179° (S) 18:20:17 437.500
STRAND 1 19 Jan 18:21:32 18:25:28 22° 96° (E) 18:29:24 437.568
LilacSat-2 19 Jan 18:23:48 18:25:58 15° 265° (W) 18:28:10 437.200
CINEMA 3 19 Jan 18:28:01 18:32:33 76° 77° (ENE) 18:36:53 145.822/145.860
CUTE 1.7 + AOD 2 19 Jan 18:28:11 18:32:05 37° 74° (ENE) 18:36:00 437.475
DOVE 4 19 Jan 18:30:26 18:34:22 22° 263° (W) 18:38:12 437.250
JUGNU 19 Jan 18:32:19 18:36:20 19° 194° (SSW) 18:40:21 437.505
CUTE-I 19 Jan 18:53:36 18:56:24 14° 266° (W) 18:59:12 437.470
CANX-2 19 Jan 18:56:50 19:01:04 77° 259° (W) 19:05:20 2200.000
AIST 2 19 Jan 19:05:43 19:09:47 80° 114° (ESE) 19:13:55 435.215
Cosmos 2499 19 Jan 19:09:37 19:18:05 63° 92° (E) 19:26:00 435.465 / 435.565
SEEDS 19 Jan 19:09:51 19:14:03 82° 76° (ENE) 19:18:18 437.485
COMPASS 1 19 Jan 19:17:05 19:21:11 62° 76° (ENE) 19:25:21 437.405
HO-68 19 Jan 19:19:24 19:26:28 61° 258° (WSW) 19:33:35 435.675
Oscar 11 19 Jan 19:23:16 19:26:16 19° 70° (ENE) 19:29:17 145.826/435.025
CUBEBUG 2 19 Jan 19:29:04 19:33:17 83° 78° (ENE) 19:37:26 437.445
AAUSAT CUBESAT 2 19 Jan 19:29:17 19:33:24 66° 77° (ENE) 19:37:33 437.432
NOAA 18 19 Jan 19:34:47 19:36:23 11° 267° (W) 19:37:58 137.9125
GONETS M04 19 Jan 19:39:57 19:48:36 78° 94° (E) 19:57:20
FUNcube-1 19 Jan 19:57:35 20:01:36 53° 75° (ENE) 20:05:38 145.935
SRMSAT 19 Jan 19:59:04 20:03:51 25° 189° (S) 20:08:39 437.500
UWE-3 19 Jan 19:59:24 20:03:32 68° 258° (WSW) 20:07:39 435.000/436.395/437.385
STRAND 1 19 Jan 20:00:03 20:04:36 33° 289° (WNW) 20:09:08 437.568
CUTE 1.7 + AOD 2 19 Jan 20:06:04 20:07:59 13° 266° (W) 20:09:56 437.475
ZACube-1 19 Jan 20:20:06 20:24:11 67° 259° (W) 20:28:19 437.345
HUMSAT D 19 Jan 20:39:15 20:42:29 23° 72° (ENE) 20:45:46 437.325/437.525
DELFI C3 19 Jan 20:53:49 20:57:48 77° 76° (ENE) 21:01:49 145.870
Oscar 11 19 Jan 20:58:30 21:02:10 27° 263° (W) 21:05:50 145.826/435.025
PRISM 19 Jan 21:00:14 21:04:17 56° 101° (ESE) 21:08:16 437.425
Cosmos 2499 19 Jan 21:05:24 21:11:30 21° 286° (WNW) 21:17:23 435.465 / 435.565
UNISAT 6 19 Jan 21:09:29 21:12:46 20° 96° (E) 21:16:06 437.425
TIGRISAT 19 Jan 21:22:40 21:26:26 26° 97° (E) 21:30:14 435.000
BY70-1 19 Jan 21:25:42 21:27:06 13° 69° (ENE) 21:28:33 436.1900
ISS 19 Jan 21:31:45 21:34:59 80° 312° (NW) 21:38:15 145.825
RS-15 19 Jan 21:35:18 21:44:03 25° 102° (ESE) 21:53:01 29.354- 29.394
ANTELSAT 19 Jan 21:37:17 21:41:32 42° 100° (E) 21:45:52 437.575/2403.000
JAS-2 19 Jan 21:40:30 21:46:04 22° 95° (E) 21:51:46 435.910
GONETS M04 19 Jan 21:41:02 21:46:12 17° 290° (WNW) 21:51:26
SRMSAT 19 Jan 21:49:32 21:52:28 14° 198° (SSW) 21:55:25 437.500
HUMSAT D 19 Jan 22:15:04 22:17:59 19° 264° (W) 22:20:56 437.325/437.525
CUBEBUG 1 19 Jan 22:21:06 22:24:44 26° 72° (ENE) 22:28:23 437.445
AISAT 19 Jan 22:35:37 22:39:12 24° 71° (ENE) 22:42:47 437.250
UNISAT 6 19 Jan 22:45:36 22:49:24 28° 288° (WNW) 22:53:15 437.425
QB50P1 19 Jan 22:46:40 22:49:50 21° 96° (E) 22:53:00 145.935-145.965
POLYITAN 1 19 Jan 22:50:23 22:53:47 23° 97° (E) 22:57:11 437.675
QB50P2 19 Jan 22:51:28 22:55:01 26° 97° (E) 22:58:34 145.880/145.840
ESTCUBE 1 19 Jan 22:53:37 22:58:07 69° 259° (W) 23:02:38 437.505/2401.250
BY70-1 19 Jan 22:55:22 22:57:15 16° 266° (W) 22:59:13 436.1900
TIGRISAT 19 Jan 22:59:34 23:02:55 21° 289° (WNW) 23:06:19 435.000
VELOX 1 19 Jan 23:08:09 23:12:30 57° 75° (ENE) 23:16:52 145.980
POPSAT HIP 1 19 Jan 23:12:46 23:16:48 43° 100° (E) 23:20:49 437.405
50 SAT 19 Jan 23:14:27 23:17:52 46° 75° (ENE) 23:21:18 437.505
ANTELSAT 19 Jan 23:15:40 23:17:51 14° 291° (WNW) 23:20:03 437.575/2403.000
AO-85 19 Jan 23:17:57 23:21:50 89° 253° (WSW) 23:25:48 145.980
JAS-2 19 Jan 23:23:57 23:31:10 62° 286° (WNW) 23:38:50 435.910
DUCHIFAT 1 19 Jan 23:24:25 23:28:31 52° 100° (E) 23:32:37 145.980
NANOSAT C BR1 19 Jan 23:29:31 23:33:43 69° 102° (ESE) 23:37:54 145.865
PCSat 19 Jan 23:34:11 23:38:56 33° 108° (ESE) 23:43:43 145.827
TISAT 1 19 Jan 23:40:59 23:41:32 10° 67° (ENE) 23:42:03 437.305
SPROUT 19 Jan 23:42:13 23:46:28 76° 257° (WSW) 23:50:43 437.525
DX 1 19 Jan 23:42:35 23:46:55 67° 76° (ENE) 23:51:16 434.975-435.025
UKube-1 19 Jan 23:43:18 23:47:26 46° 74° (ENE) 23:51:34 .
RS-15 19 Jan 23:43:32 23:55:14 74° 299° (WNW) 00:07:32 29.354- 29.394
CUBEBUG 1 19 Jan 23:57:36 00:00:55 21° 264° (W) 00:04:14 437.445
PHONESAT 2.4 20 Jan 00:01:47 00:03:15 15° 143° (SE) 00:04:43 2401.200-2431.200
BUGSAT 1 20 Jan 00:01:55 00:05:49 47° 100° (E) 00:09:44 437.445
AISAT 20 Jan 00:12:02 00:15:31 22° 263° (W) 00:19:01 437.250
QB50P1 20 Jan 00:22:07 00:25:28 23° 288° (WNW) 00:28:50 145.935-145.965
POLYITAN 1 20 Jan 00:26:13 00:29:24 21° 289° (WNW) 00:32:35 437.675
Oscar 19 20 Jan 00:27:30 00:31:28 22° 96° (E) 00:35:25 437.125/150
QB50P2 20 Jan 00:27:37 00:30:36 19° 289° (WNW) 00:33:34 145.880/145.840
Gurwin Techsat 1B 20 Jan 00:37:32 00:40:10 14° 94° (E) 00:42:48 435.225
POPSAT HIP 1 20 Jan 00:50:41 00:52:08 12° 292° (WNW) 00:53:34 437.405
Cosmos 2504 20 Jan 00:55:22 01:00:37 21° 73° (ENE) 01:05:45 435.465 / 435.565
BEESAT 3 20 Jan 00:56:22 00:59:43 25° 57° (ENE) 01:03:02 437.485
ITUPSAT 1 20 Jan 01:01:03 01:04:17 19° 69° (ENE) 01:07:33 437.325
AIST 1 20 Jan 01:04:56 01:09:13 84° 84° (E) 01:13:27
YUBILEINY 20 Jan 01:10:18 01:19:02 64° 82° (E) 01:27:41 435.215
TISAT 1 20 Jan 01:12:38 01:16:41 48° 260° (W) 01:20:43 437.305
PCSat 20 Jan 01:17:48 01:22:16 26° 302° (WNW) 01:26:47 145.827
UKube-1 20 Jan 01:22:41 01:23:37 11° 266° (W) 01:24:33 .
BEESAT 20 Jan 01:34:39 01:39:09 45° 74° (ENE) 01:43:41 436.000
PHONESAT 2.4 20 Jan 01:35:05 01:37:11 32° 335° (NNW) 01:39:18 2401.200-2431.200
SWISSCUBE 20 Jan 01:36:06 01:40:42 54° 74° (ENE) 01:45:20 437.505
MOZHAYETS 4 20 Jan 01:38:30 01:40:10 12° 67° (ENE) 01:41:51
BEESAT 2 20 Jan 01:39:32 01:43:11 32° 58° (ENE) 01:46:48 435.950
Cosmos 2491 20 Jan 01:51:17 01:59:58 77° 93° (E) 02:08:39 435.465 / 435.565
RS-15 20 Jan 02:02:09 02:10:16 20° 323° (NW) 02:18:35 29.354- 29.394
CUSAT 1 20 Jan 02:03:16 02:06:43 20° 83° (E) 02:10:50 437.405
Oscar 19 20 Jan 02:06:12 02:10:45 32° 289° (WNW) 02:15:16 437.125/150
Gurwin Techsat 1B 20 Jan 02:15:10 02:20:20 54° 286° (WNW) 02:25:29 435.225
KKS-1 20 Jan 02:22:52 02:24:05 11° 67° (ENE) 02:25:17 437.445
AUBIESAT-1 20 Jan 02:23:16 02:26:20 19° 67° (ENE) 02:29:17 437.475
BEESAT 3 20 Jan 02:34:17 02:37:07 19° 250° (WSW) 02:39:57 437.485
ITUPSAT 1 20 Jan 02:37:31 02:41:48 34° 261° (W) 02:46:09 437.325
ITAMSAT 1 20 Jan 02:47:17 02:52:24 55° 101° (E) 02:57:30 435.822/435.867
Cosmos 2504 20 Jan 02:47:17 02:54:16 51° 269° (W) 03:01:07 435.465 / 435.565
AO-7 20 Jan 03:02:20 03:10:23 50° 102° (ESE) 03:18:20 29.400- 29.500
YUBILEINY 20 Jan 03:08:56 03:14:58 21° 277° (W) 03:21:00 435.215
MOZHAYETS 4 20 Jan 03:12:25 03:16:49 50° 260° (W) 03:21:17
BEESAT 20 Jan 03:14:48 03:17:04 13° 266° (W) 03:19:21 436.000
STARS 20 Jan 03:15:24 03:18:35 20° 70° (ENE) 03:21:45 437.465
SWISSCUBE 20 Jan 03:17:26 03:18:43 11° 267° (W) 03:20:00 437.505
BEESAT 2 20 Jan 03:18:20 03:20:39 15° 251° (WSW) 03:22:57 435.950
M-CUBED/EXP-1 PRIME 20 Jan 03:18:50 03:23:20 68° 253° (WSW) 03:27:35 437.505
AIST 2 20 Jan 03:34:36 03:35:47 11° 51° (NE) 03:36:58 435.215
CUSAT 1 20 Jan 03:43:55 03:48:08 33° 287° (WNW) 03:53:29 437.405
Cosmos 2491 20 Jan 03:52:20 03:57:33 17° 290° (WNW) 04:02:49 435.465 / 435.565
KKS-1 20 Jan 03:55:48 04:00:07 52° 259° (W) 04:04:28 437.445
CUBESAT XI-V 20 Jan 03:56:29 04:01:06 63° 75° (ENE) 04:05:46 437.345
AUBIESAT-1 20 Jan 03:56:41 04:00:30 29° 257° (WSW) 04:04:10 437.475
BRITE-PL 20 Jan 04:09:22 04:13:19 26° 95° (E) 04:17:00 437.365/2234.400
ITAMSAT 1 20 Jan 04:28:41 04:31:20 14° 294° (WNW) 04:33:58 435.822/435.867
DANDE 20 Jan 04:30:26 04:33:35 33° 285° (WNW) 04:37:36 436.750
NOAA 15 20 Jan 04:50:58 04:52:13 11° 93° (E) 04:53:28 137.62
STARS 20 Jan 04:51:01 04:54:42 27° 262° (W) 04:58:25 437.465
AO-7 20 Jan 04:55:44 05:02:43 31° 297° (WNW) 05:09:40 29.400- 29.500
HORYU 2 20 Jan 05:02:03 05:06:19 44° 100° (E) 05:10:34 437.375
AIST 2 20 Jan 05:10:25 05:14:35 58° 246° (WSW) 05:18:43 435.215
Cosmos 2499 20 Jan 05:12:02 05:14:02 11° 69° (ENE) 05:16:01 435.465 / 435.565
O/OREOS (USA 219) 20 Jan 05:15:18 05:19:05 27° 103° (ESE) 05:22:52 437.305
STRAND 1 20 Jan 05:32:37 05:36:01 18° 68° (ENE) 05:39:24 437.568
CUTE-I 20 Jan 05:33:58 05:38:45 33° 98° (E) 05:43:32 437.470
ISS 20 Jan 05:40:12 05:43:28 85° 221° (SW) 05:46:42 145.825
BRITE-PL 20 Jan 05:48:01 05:51:35 21° 291° (WNW) 05:54:59 437.365/2234.400
GOMX 1 20 Jan 05:53:13 05:57:24 48° 285° (WNW) 06:01:24 467.674
GONETS M04 20 Jan 05:58:02 06:05:29 29° 75° (ENE) 06:12:53
LilacSat-2 20 Jan 06:00:34 06:04:27 85° 102° (ESE) 06:08:20 437.200
SO-50 20 Jan 06:05:46 06:07:50 13° 108° (ESE) 06:09:54 436.795
Cubesat XI-IV 20 Jan 06:16:34 06:21:56 90° 283° (WNW) 06:27:17 437.490
NOAA 18 20 Jan 06:17:51 06:23:05 46° 100° (E) 06:28:17 137.9125
PHONESAT 2.4 20 Jan 06:19:05 06:21:06 26° 24° (NNE) 06:23:07 2401.200-2431.200
NOAA 15 20 Jan 06:27:03 06:32:20 66° 285° (WNW) 06:37:34 137.62
CINEMA 3 20 Jan 06:28:25 06:31:58 25° 98° (E) 06:35:34 145.822/145.860
DOVE 4 20 Jan 06:34:09 06:38:07 44° 285° (WNW) 06:42:02 437.250
HORYU 2 20 Jan 06:40:27 06:42:25 13° 293° (WNW) 06:44:23 437.375
RS-15 20 Jan 06:42:02 06:50:48 21° 38° (NE) 06:59:19 29.354- 29.394
CANX-2 20 Jan 06:47:48 06:51:29 27° 97° (E) 06:55:08 2200.000
HO-68 20 Jan 06:53:36 07:00:07 37° 99° (E) 07:06:34 435.675
O/OREOS (USA 219) 20 Jan 06:55:08 06:58:25 20° 296° (WNW) 07:01:41 437.305
SEEDS 20 Jan 07:00:01 07:03:14 21° 96° (E) 07:06:24 437.485
Cosmos 2499 20 Jan 07:00:50 07:07:56 83° 265° (W) 07:15:02 435.465 / 435.565
COMPASS 1 20 Jan 07:06:43 07:09:11 15° 94° (E) 07:11:39 437.405
STRAND 1 20 Jan 07:10:05 07:14:49 40° 261° (W) 07:19:36 437.568
CUTE-I 20 Jan 07:14:23 07:18:33 24° 291° (WNW) 07:22:44 437.470
AAUSAT CUBESAT 2 20 Jan 07:18:17 07:20:49 16° 94° (E) 07:23:21 437.432
CUBEBUG 2 20 Jan 07:25:23 07:29:05 26° 97° (E) 07:32:52 437.445
SO-50 20 Jan 07:43:14 07:47:51 51° 300° (WNW) 07:52:24 436.795
PRISM 20 Jan 07:44:46 07:47:44 19° 70° (ENE) 07:50:41 437.425
FUNcube-1 20 Jan 07:51:46 07:54:39 17° 95° (E) 07:57:33 145.935
PHONESAT 2.4 20 Jan 07:53:20 07:55:05 19° 216° (SW) 07:56:51 2401.200-2431.200
CUTE 1.7 + AOD 2 20 Jan 07:53:57 07:58:05 48° 285° (WNW) 08:02:11 437.475
GONETS M04 20 Jan 07:54:03 08:02:25 49° 271° (W) 08:10:46
UWE-3 20 Jan 07:54:11 07:58:14 35° 98° (E) 08:02:23 435.000/436.395/437.385
NOAA 18 20 Jan 07:59:45 08:03:18 18° 294° (WNW) 08:06:53 137.9125
CINEMA 3 20 Jan 08:05:56 08:08:54 19° 289° (WNW) 08:11:56 145.822/145.860
ZACube-1 20 Jan 08:13:39 08:17:42 34° 98° (E) 08:21:48 437.345
TIGRISAT 20 Jan 08:18:24 08:19:39 11° 68° (ENE) 08:20:54 435.000
CANX-2 20 Jan 08:24:08 08:27:04 18° 290° (WNW) 08:30:01 2200.000
ANTELSAT 20 Jan 08:31:46 08:34:41 18° 70° (ENE) 08:37:35 437.575/2403.000
SEEDS 20 Jan 08:35:24 08:38:47 23° 288° (WNW) 08:42:09 437.485
DELFI C3 20 Jan 08:38:02 08:40:17 15° 95° (E) 08:42:31 145.870
COMPASS 1 20 Jan 08:41:02 08:44:44 30° 287° (WNW) 08:48:24 437.405
HO-68 20 Jan 08:41:22 08:47:38 34° 293° (WNW) 08:53:53 435.675
Oscar 11 20 Jan 08:50:23 08:54:46 82° 103° (ESE) 08:59:06 145.826/435.025
AAUSAT CUBESAT 2 20 Jan 08:52:39 08:56:16 29° 287° (WNW) 08:59:53 437.432
RS-15 20 Jan 08:53:12 09:05:34 79° 62° (ENE) 09:17:18 29.354- 29.394
CUBEBUG 2 20 Jan 09:02:16 09:05:30 21° 288° (WNW) 09:08:48 437.445
PRISM 20 Jan 09:19:21 09:22:48 25° 263° (W) 09:26:15 437.425
FUNcube-1 20 Jan 09:26:56 09:30:51 32° 287° (WNW) 09:34:50 145.935
UWE-3 20 Jan 09:31:45 09:34:23 16° 290° (WNW) 09:37:03 435.000/436.395/437.385
JAS-2 20 Jan 09:31:59 09:36:27 29° 69° (ENE) 09:41:12 435.910
UNISAT 6 20 Jan 09:38:14 09:42:27 62° 259° (WSW) 09:46:40 437.425
ZACube-1 20 Jan 09:50:58 09:53:40 16° 290° (WNW) 09:56:23 437.345
TIGRISAT 20 Jan 09:51:49 09:55:54 44° 260° (W) 09:59:58 435.000
POPSAT HIP 1 20 Jan 10:00:56 10:03:31 16° 70° (ENE) 10:06:04 437.405
HUMSAT D 20 Jan 10:02:17 10:06:34 82° 285° (WNW) 10:10:53 437.325/437.525
BY70-1 20 Jan 10:05:21 10:07:19 15° 94° (E) 10:09:12 436.1900
ANTELSAT 20 Jan 10:07:33 10:11:09 27° 263° (W) 10:14:46 437.575/2403.000
PCSat 20 Jan 10:10:04 10:15:30 78° 65° (ENE) 10:20:55 145.827
DELFI C3 20 Jan 10:11:38 10:15:04 28° 287° (WNW) 10:18:28 145.870
DUCHIFAT 1 20 Jan 10:11:39 10:14:31 18° 70° (ENE) 10:17:23 145.980
NANOSAT C BR1 20 Jan 10:16:35 10:19:55 23° 71° (ENE) 10:23:14 145.865
